Simultaneous Nadir Overpasses (SNOs) Predictions

Prediction of SNOs between AQUA and GOES-15 Satellite Orbit:

Table of predicted SNOs for the next 14.0 days since TLE Epoch: 3/9/2013
Index Date Time (AQUA) AQUA Lat,Lon GOES-15 Lat,Lon Distance(km) Time Diff (sec)
1 03/10/2013 10:20:07 -0.90,-131.21 -0.01,-135.42 478.27 80
2 03/10/2013 22:41:31 -0.23,-136.40 0.00,-135.37 117.87 80
3 03/12/2013 22:29:20 0.40,-133.44 0.01,-135.36 218.19 80
4 03/13/2013 10:50:36 0.67,-138.60 -0.00,-135.41 362.32 80
5 03/15/2013 10:38:25 0.02,-135.65 -0.01,-135.41 26.80 80
6 03/17/2013 10:26:13 -0.59,-132.68 -0.00,-135.39 308.54 80
7 03/17/2013 22:47:37 -0.52,-137.87 0.00,-135.33 287.73 80
8 03/19/2013 22:35:25 0.11,-134.90 -0.00,-135.31 46.99 80
9 03/21/2013 22:23:12 0.71,-131.93 -0.00,-135.28 381.10 80
10 03/22/2013 10:44:27 0.35,-137.09 0.00,-135.33 200.21 80




NCC Satellite Simultaneous Nadir Overpasses (SNOs) Prediction Service
